CW4114 Weather Reports


Display with metric or nautical units.
time (UTC)temp
F
wind
direction
speed
MPH
gust
MPH
rain 1hr
in
rain 24hr
in
rain mn
in
humidity
%
barometer
mb
20260505163507 44 250 6.0 12.0 0.00 0.17 0.00 70 1003.4
20260505163009 45 329 6.0 13.0 0.00 0.17 0.00 68 1003.4
20260505162505 46 327 7.0 13.0 0.00 0.17 0.00 63 1003.5
20260505162247 48 302 4.0 15.0 0.00 0.17 0.00 60 1003.4
20260505161505 49 357 6.0 15.0 0.00 0.17 0.00 55 1003.2
20260505161006 49 347 8.0 15.0 0.00 0.17 0.00 58 1003.3
20260505160732 48 343 5.0 15.0 0.00 0.17 0.00 56 1003.5
20260505153002 47 257 6.0 17.0 0.00 0.17 0.00 58 1003.3
20260505152502 47 286 8.0 17.0 0.00 0.17 0.00 58 1003.3
20260505152004 47 290 7.0 15.0 0.00 0.17 0.00 65 1003.4
20260505151502 47 265 8.0 16.0 0.00 0.17 0.00 66 1003.4
20260505151003 47 330 5.0 16.0 0.00 0.17 0.00 67 1003.2
20260505150502 47 344 7.0 14.0 0.00 0.17 0.00 68 1003.2
20260505150223 46 285 8.0 14.0 0.00 0.17 0.00 70 1003.2
20260505140610 43 27 2.0 9.0 0.00 0.17 0.00 79 1002.2
20260505124943 44 300 6.0 12.0 0.00 0.17 0.00 70 1001.3
20260505124444 44 327 6.0 12.0 0.00 0.17 0.00 70 1001.3
20260505123943 44 302 3.0 10.0 0.00 0.17 0.00 72 1001.5
20260505123443 44 7 5.0 10.0 0.00 0.17 0.00 73 1001.3
20260505122943 44 306 3.0 10.0 0.00 0.17 0.00 73 1001.4
20260505122439 43 324 3.0 7.0 0.00 0.17 0.00 75 1001.3
20260505122215 43 296 4.0 9.0 0.00 0.17 0.00 75 1001.2
20260505121433 42 293 1.0 9.0 0.00 0.17 0.00 75 1001.2
20260505120935 42 313 5.0 9.0 0.00 0.17 0.00 76 1001.1
20260505120436 42 257 4.0 7.0 0.00 0.17 0.00 76 1001.1
20260505115936 42 275 3.0 10.0 0.00 0.17 0.00 76 1001.2
20260505115433 42 344 2.0 10.0 0.00 0.17 0.00 76 1001.1
20260505114946 42 14 3.0 9.0 0.00 0.17 0.00 76 1000.9
20260505113932 42 298 5.0 9.0 0.00 0.17 0.00 77 1000.9
20260505113432 41 327 4.0 9.0 0.00 0.17 0.00 78 1000.8
20260505112932 41 314 5.0 10.0 0.00 0.17 0.00 79 1000.8
20260505112433 41 316 4.0 10.0 0.00 0.17 0.00 80 1000.8
20260505111937 41 303 4.0 9.0 0.00 0.17 0.00 80 1000.7
20260505111432 41 286 5.0 7.0 0.00 0.17 0.00 81 1000.5
20260505111202 40 278 4.0 7.0 0.00 0.17 0.00 82 1000.4
20260505110432 40 281 4.0 6.0 0.00 0.17 0.00 82 1000.3
20260505101933 40 272 4.0 7.0 0.00 0.17 0.00 82 999.5
20260505101433 40 285 5.0 7.0 0.00 0.17 0.00 81 999.5
20260505100933 40 258 4.0 7.0 0.00 0.17 0.00 81 999.5
20260505100433 41 288 4.0 7.0 0.00 0.17 0.00 81 999.4
20260505095933 41 309 3.0 7.0 0.00 0.17 0.00 80 999.3
20260505095706 41 293 4.0 7.0 0.00 0.17 0.00 80 999.3
20260505094933 41 316 4.0 5.0 0.00 0.17 0.00 79 999.1
20260505094432 41 290 4.0 5.0 0.00 0.17 0.00 79 999.2
20260505093932 41 337 3.0 6.0 0.00 0.17 0.00 79 999.1
20260505093710 42 303 3.0 7.0 0.00 0.17 0.00 78 999.1
20260505092933 42 341 3.0 7.0 0.00 0.17 0.00 79 999.1
20260505092433 42 285 3.0 10.0 0.00 0.17 0.00 78 998.9
20260505091933 42 234 3.0 10.0 0.00 0.17 0.00 78 999.0
20260505091432 42 298 2.0 10.0 0.00 0.17 0.00 78 998.8
20260505090933 42 305 4.0 15.0 0.00 0.17 0.00 77 998.7
20260505090700 42 314 4.0 15.0 0.00 0.17 0.00 77 998.7
20260505085933 43 286 5.0 11.0 0.00 0.17 0.00 77 998.6
20260505085433 43 326 5.0 9.0 0.00 0.17 0.00 76 998.6
20260505084933 43 271 4.0 12.0 0.00 0.17 0.00 76 998.6
20260505084433 43 300 5.0 12.0 0.00 0.17 0.00 77 998.5
20260505084200 43 279 3.0 7.0 0.00 0.17 0.00 77 998.5
20260505083432 43 285 5.0 9.0 0.00 0.17 0.00 76 998.5
20260505082933 44 271 2.0 10.0 0.00 0.17 0.00 76 998.5
20260505082432 44 306 3.0 11.0 0.00 0.17 0.00 77 998.6
20260505081932 44 309 5.0 11.0 0.00 0.17 0.00 78 998.5
20260505081433 44 295 5.0 9.0 0.00 0.17 0.00 78 998.4
20260505080933 44 279 3.0 7.0 0.00 0.17 0.00 77 998.4
20260505080430 44 298 3.0 7.0 0.00 0.18 0.00 77 998.4
20260505075933 45 299 4.0 9.0 0.00 0.18 0.00 76 998.3
20260505075425 45 331 4.0 11.0 0.00 0.18 0.00 76 998.2
20260505075148 45 295 4.0 15.0 0.00 0.18 0.00 76 998.2
20260505074422 45 290 4.0 15.0 0.00 0.18 0.00 77 998.2
20260505073921 45 306 3.0 7.0 0.00 0.18 0.00 78 998.2
20260505073422 45 268 4.0 7.0 0.00 0.18 0.00 78 998.1
20260505072922 45 326 4.0 7.0 0.00 0.18 0.00 78 998.1
20260505072424 45 269 4.0 7.0 0.00 0.18 0.00 78 998.1
20260505071921 45 290 2.0 7.0 0.00 0.18 0.00 78 998.2
20260505071421 45 292 3.0 9.0 0.00 0.18 0.00 78 998.1
20260505070923 45 314 4.0 9.0 0.00 0.18 0.00 78 998.1
20260505070421 45 324 4.0 9.0 0.00 0.18 0.00 78 997.9
20260505065921 45 326 3.0 9.0 0.00 0.18 0.00 79 998.1
20260505065421 45 300 4.0 9.0 0.00 0.18 0.00 82 998.1
20260505064919 45 265 3.0 9.0 0.00 0.18 0.00 82 997.9
20260505064421 45 307 3.0 7.0 0.00 0.18 0.00 83 998.1
20260505063918 45 302 4.0 7.0 0.00 0.18 0.00 83 998.1
20260505063418 45 310 3.0 6.0 0.00 0.18 0.00 83 998.1
20260505063147 45 257 2.0 5.0 0.00 0.18 0.00 83 997.9
20260505062418 45 305 3.0 5.0 0.00 0.18 0.00 83 998.1
20260505061919 45 276 3.0 6.0 0.00 0.18 0.00 82 998.1
20260505061418 46 292 2.0 6.0 0.00 0.18 0.00 82 998.1
20260505061145 46 279 2.0 5.0 0.00 0.18 0.00 82 997.9
20260505060418 46 274 3.0 5.0 0.00 0.18 0.00 82 998.1
20260505055917 46 306 2.0 6.0 0.00 0.18 0.00 82 997.9
20260505055417 46 279 2.0 6.0 0.00 0.18 0.00 82 998.1
20260505054917 46 276 2.0 7.0 0.00 0.18 0.00 83 998.1
20260505054419 45 282 2.0 7.0 0.00 0.18 0.00 84 997.7
20260505053918 45 330 3.0 7.0 0.00 0.18 0.00 86 997.6
20260505053416 45 276 2.0 7.0 0.00 0.18 0.00 87 997.7
20260505052917 45 293 3.0 6.0 0.00 0.18 0.00 88 997.6
20260505052417 45 290 2.0 6.0 0.00 0.18 0.00 88 997.6
20260505051916 45 257 3.0 6.0 0.00 0.18 0.00 89 997.6
20260505051416 45 341 2.0 5.0 0.00 0.18 0.00 89 997.5
20260505050916 45 295 1.0 5.0 0.00 0.18 0.00 89 997.4
20260505050642 45 298 2.0 4.0 0.00 0.18 0.00 89 997.4
20260505041644 45 296 2.0 7.0 0.00 0.18 0.00 91 996.6
20260505041146 45 307 2.0 7.0 0.00 0.18 0.00 91 996.5
20260505040414 45 286 2.0 6.0 0.00 0.18 0.00 91 996.4
20260505035915 45 319 4.0 6.0 0.00 0.18 0.18 91 996.2
20260505035642 45 358 3.0 5.0 0.00 0.18 0.18 91 996.0
20260505034915 45 0 3.0 5.0 0.00 0.18 0.18 91 995.9
20260505034416 45 326 2.0 5.0 0.00 0.18 0.18 91 995.9
20260505033914 45 358 2.0 5.0 0.00 0.18 0.18 91 995.9
20260505033416 45 300 1.0 5.0 0.00 0.18 0.18 91 995.9
20260505032913 45 343 2.0 4.0 0.00 0.18 0.18 91 995.9
20260505032640 45 348 2.0 4.0 0.00 0.18 0.18 91 995.9
20260505031913 45 331 1.0 4.0 0.00 0.18 0.18 91 996.0
20260505031412 45 353 2.0 4.0 0.00 0.18 0.18 92 996.0
20260505030913 45 11 1.0 3.0 0.00 0.18 0.18 92 996.0
20260505030412 45 2 1.0 3.0 0.00 0.18 0.18 92 996.2
20260505025912 45 350 1.0 4.0 0.00 0.18 0.18 92 996.2
20260505025410 45 330 2.0 4.0 0.00 0.18 0.18 92 996.2
20260505024911 45 344 0.0 6.0 0.01 0.18 0.18 92 996.3
20260505024412 45 21 3.0 6.0 0.01 0.18 0.18 93 996.4
20260505024157 45 272 2.0 4.0 0.01 0.18 0.18 93 996.7
20260505023634 45 305 1.0 4.0 0.01 0.18 0.18 92 996.2
20260505022904 45 336 2.0 4.0 0.01 0.18 0.18 92 996.3
20260505022406 45 7 2.0 4.0 0.01 0.18 0.18 93 996.2
20260505021906 45 334 2.0 4.0 0.01 0.18 0.18 92 996.3
20260505021403 45 358 2.0 4.0 0.02 0.18 0.18 92 996.0
20260505020903 45 348 3.0 4.0 0.02 0.18 0.18 92 996.0
20260505020401 45 348 3.0 6.0 0.02 0.18 0.18 92 996.0
20260505015901 45 345 3.0 6.0 0.02 0.16 0.18 93 996.3
20260505015629 45 337 2.0 4.0 0.03 0.16 0.17 93 996.1
20260505014859 45 351 1.0 4.0 0.02 0.16 0.17 93 995.8
20260505014358 45 333 2.0 5.0 0.03 0.16 0.17 93 996.1
20260505014135 45 338 2.0 6.0 0.04 0.16 0.17 93 995.6
20260505013357 45 337 2.0 6.0 0.04 0.16 0.17 93 996.2
20260505012855 45 340 3.0 6.0 0.05 0.16 0.17 93 996.1
20260505012352 45 0 3.0 5.0 0.05 0.16 0.17 93 995.7
20260505011853 45 347 2.0 4.0 0.06 0.16 0.17 92 995.4
20260505011353 45 358 2.0 5.0 0.05 0.16 0.16 92 995.2
20260505010901 45 28 3.0 9.0 0.06 0.16 0.16 92 995.4
20260505010111 45 322 4.0 12.0 0.09 0.08 0.16 92 995.9
20260505005350 44 358 2.0 12.0 0.10 0.08 0.15 92 995.8
20260505004847 45 348 4.0 11.0 0.13 0.08 0.15 91 995.6
20260505004346 45 333 6.0 11.0 0.12 0.08 0.14 91 995.5
20260505003850 45 337 6.0 11.0 0.11 0.08 0.13 91 995.4
20260505003349 45 336 5.0 13.0 0.11 0.09 0.13 91 995.3
20260505002846 46 333 5.0 13.0 0.10 0.09 0.12 92 995.2
20260505002341 46 348 4.0 9.0 0.10 0.11 0.12 92 994.9
20260505001841 46 0 4.0 10.0 0.09 0.13 0.11 92 995.1
20260505001336 46 337 4.0 10.0 0.10 0.15 0.11 91 995.1
20260505000849 46 24 4.0 7.0 0.09 0.17 0.10 91 994.9
20260505000334 46 345 4.0 6.0 0.08 0.18 0.09 90 994.9
20260504235604 46 334 2.0 9.0 0.04 0.14 0.05 89 994.6
20260504234833 46 1 2.0 9.0 0.01 0.17 0.02 88 994.5
20260504234336 46 334 3.0 5.0 0.01 0.21 0.02 87 994.1
20260504233834 46 300 2.0 6.0 0.01 0.24 0.02 86 993.8
20260504233334 47 79 1.0 9.0 0.01 0.24 0.02 85 993.5
20260504232833 47 1 3.0 10.0 0.01 0.24 0.02 84 993.4
20260504232335 48 62 2.0 11.0 0.01 0.24 0.02 82 993.4
20260504232058 48 37 4.0 13.0 0.01 0.24 0.02 80 993.3
20260504231409 49 234 4.0 13.0 0.00 0.24 0.01 77 993.7
20260504230830 50 9 4.0 10.0 0.00 0.24 0.01 73 993.6
20260504230332 50 290 4.0 7.0 0.00 0.24 0.01 71 994.0
20260504225829 50 355 4.0 12.0 0.00 0.24 0.01 67 993.9
20260504225356 51 351 2.0 12.0 0.00 0.24 0.01 63 993.5
20260504225104 53 327 5.0 11.0 0.00 0.24 0.01 58 992.8
20260504224323 56 27 5.0 11.0 0.00 0.24 0.01 53 992.2
20260504223822 59 21 4.0 10.0 0.00 0.24 0.01 46 992.5
20260504223552 66 15 3.0 16.0 0.00 0.24 0.01 35 992.0
20260504223128 72 357 7.0 19.0 0.00 0.24 0.01 33 991.9
20260504223118 73 257 12.0 23.0 0.00 0.24 0.01 33 991.1
20260504221817 73 295 14.0 27.0 0.00 0.24 0.01 33 991.0
20260504221349 73 245 15.0 28.0 0.00 0.24 0.01 33 990.9
20260504220815 73 254 12.0 32.0 0.00 0.24 0.01 33 991.0
20260504220314 73 268 14.0 32.0 0.00 0.24 0.01 33 991.1
20260504215809 73 275 13.0 29.0 0.00 0.24 0.01 33 991.0
20260504215308 73 238 11.0 29.0 0.00 0.24 0.01 33 991.0
20260504214812 73 274 13.0 26.0 0.00 0.24 0.01 33 990.8
20260504214307 73 268 11.0 19.0 0.00 0.24 0.01 33 990.7
20260504213807 73 286 11.0 19.0 0.00 0.24 0.01 33 990.7
20260504213307 73 283 11.0 19.0 0.00 0.24 0.01 33 990.7
20260504212807 73 252 10.0 19.0 0.00 0.24 0.01 34 990.7
20260504212311 73 264 8.0 17.0 0.00 0.24 0.01 34 990.7
20260504211807 73 271 11.0 18.0 0.00 0.24 0.01 33 990.8
20260504211308 73 288 10.0 19.0 0.00 0.24 0.01 32 990.7
20260504210809 73 281 9.0 19.0 0.00 0.24 0.01 32 990.7
20260504210306 73 251 10.0 22.0 0.00 0.24 0.01 32 990.7
20260504205808 73 244 11.0 31.0 0.00 0.24 0.01 32 990.7
20260504205305 74 247 13.0 38.0 0.00 0.24 0.01 32 990.6
20260504204804 74 282 16.0 38.0 0.00 0.24 0.01 31 990.5
20260504204533 74 254 11.0 27.0 0.00 0.24 0.01 30 990.7
20260504203804 74 275 15.0 24.0 0.00 0.24 0.01 29 990.5
20260504203307 75 279 14.0 28.0 0.00 0.24 0.01 29 990.4
20260504202802 75 268 13.0 28.0 0.00 0.24 0.01 29 990.5
20260504201803 75 262 13.0 28.0 0.00 0.24 0.01 28 990.5
20260504201302 76 268 15.0 28.0 0.00 0.24 0.01 27 990.5
20260504200802 76 272 15.0 27.0 0.00 0.24 0.01 27 990.5
20260504200303 76 234 13.0 27.0 0.00 0.24 0.01 26 990.5
20260504195802 77 272 16.0 27.0 0.00 0.24 0.01 26 990.5
20260504195526 77 272 13.0 24.0 0.00 0.24 0.01 26 990.5
20260504194808 77 241 13.0 27.0 0.00 0.24 0.01 27 990.4
20260504194304 77 199 11.0 35.0 0.00 0.24 0.01 27 990.5
20260504193802 77 252 15.0 35.0 0.00 0.24 0.01 26 990.5
20260504193305 78 228 15.0 34.0 0.00 0.24 0.01 26 990.6
20260504193028 77 275 18.0 34.0 0.00 0.24 0.01 25 990.5
20260504192300 77 221 17.0 31.0 0.00 0.24 0.01 25 990.7
20260504191757 77 258 16.0 29.0 0.00 0.24 0.01 24 990.8
20260504191258 78 238 15.0 27.0 0.00 0.24 0.01 25 990.5
20260504190826 78 220 8.0 20.0 0.00 0.24 0.01 27 990.8
20260504190818 78 272 13.0 22.0 0.00 0.24 0.01 26 990.8
20260504185730 77 261 13.0 22.0 0.00 0.24 0.01 27 990.8
20260504185502 76 257 9.0 31.0 0.00 0.24 0.01 28 991.1
20260504184726 76 207 17.0 31.0 0.00 0.24 0.01 27 991.2
20260504183723 76 237 13.0 29.0 0.00 0.24 0.01 28 991.3
20260504183225 76 257 19.0 28.0 0.00 0.24 0.01 28 991.4
20260504182718 76 276 15.0 29.0 0.00 0.24 0.01 28 991.6
20260504182219 76 234 15.0 29.0 0.00 0.24 0.01 27 991.6
20260504181716 76 231 15.0 29.0 0.00 0.24 0.01 27 991.5
20260504181230 76 282 12.0 30.0 0.00 0.24 0.01 28 991.6
20260504180711 76 248 11.0 30.0 0.00 0.24 0.01 30 991.5
20260504180217 74 250 11.0 24.0 0.00 0.24 0.01 30 991.8
20260504175559 74 233 12.0 27.0 0.00 0.24 0.01 30 991.7
20260504175100 74 255 16.0 31.0 0.00 0.24 0.01 29 991.9
20260504174933 74 244 16.0 31.0 0.00 0.24 0.01 29 992.2
20260504174057 74 240 12.0 28.0 0.00 0.24 0.01 30 992.4
20260504173830 74 219 15.0 28.0 0.00 0.24 0.01 29 992.2
20260504173058 74 245 15.0 28.0 0.00 0.24 0.01 28 992.2
20260504172557 74 258 14.0 30.0 0.00 0.24 0.01 30 992.4
20260504172057 74 264 20.0 30.0 0.00 0.24 0.01 30 992.6
20260504171557 74 275 12.0 19.0 0.00 0.24 0.01 32 992.6
20260504171058 0 240 13.0 0.0 0.00 0.00 0.00 992.6